Weather History for Covington, KY

Change the Weather History Date:

Tuesday, March 25, 2014

  Actual Average Record
Temperature  
Mean Temperature 31 °F 47 °F  
Max Temperature 37 °F 57 °F 88 °F (1929)
Min Temperature 24 °F 37 °F 12 °F (1974)
Degree Days  
Heating Degree Days 34 18  
Month to date heating degree days 651 563  
Since 1 July heating degree days 4895 4390  
Cooling Degree Days 0 0  
Month to date cooling degree days 0 0  
Year to date cooling degree days 0 0  
Moisture  
Dew Point 20 °F    
Average Humidity 56    
Maximum Humidity 69    
Minimum Humidity 43    
Precipitation  
Precipitation 0.03 in 0.15 in 4.15 in (1913)
Month to date precipitation 1.30 3.12  
Year to date precipitation 6.84 8.93  
Snow  
Snow 0.80 in 0.10 in 2.00 in (2013)
Month to date snowfall 3.3 2.7  
Since 1 July snowfall 46.9 21.3  
Snow Depth 0.00 in    
Sea Level Pressure  
Sea Level Pressure 30.05 in    
Wind  
Wind Speed 11 mph (NW)    
Max Wind Speed 31 mph    
Max Gust Speed 39 mph    
Visibility 8 miles    
Events Fog , Snow    
T = Trace of Precipitation, MM = Missing Value Source: NWS Daily Summary

Daily Weather History Graph

Daily Weather History Graph

Search for Another Location

Airport:

Trip Planner

Search our weather history database for the weather conditions in past years. The results will help you decide how hot, cold, wet, or windy it might be!

Date:

Astronomy

Mar. 25, 2014 Rise Set
Actual Time 7:34 AM EDT 7:55 PM EDT
Civil Twilight 7:07 AM EDT 8:22 PM EDT
Nautical Twilight 6:36 AM EDT 8:53 PM EDT
Astronomical Twilight 6:04 AM EDT 9:25 PM EDT
Moon 3:52 AM EDT (3/25) 2:27 PM EDT (3/25)
Length of Visible Light 13h 14m
Length of Day
12h 21m
Waning Crescent, 32% of the Moon is Illuminated
Mar 25
Waning Crescent
Mar 30
New
Apr 7
First Quarter
Apr 15
Full
Apr 22
Last Quarter

Hourly Weather History & Observations

Time (EDT) Temp. Windchill Dew Point Humidity Pressure Visibility Wind Dir Wind Speed Gust Speed Precip Events Conditions
12:52 AM 33.1 °F 25.5 °F 16.0 °F 50% 30.10 in 10.0 mi North 9.2 mph - N/A   Overcast
1:52 AM 33.1 °F 28.7 °F 14.0 °F 46% 30.09 in 10.0 mi NNE 4.6 mph - N/A   Overcast
2:52 AM 32.0 °F 26.4 °F 15.1 °F 50% 30.08 in 10.0 mi North 5.8 mph - N/A   Overcast
3:52 AM 30.9 °F 25.2 °F 16.0 °F 54% 30.06 in 10.0 mi North 5.8 mph - N/A   Overcast
4:52 AM 30.0 °F 26.5 °F 15.1 °F 54% 30.03 in 10.0 mi NNW 3.5 mph - N/A   Overcast
5:52 AM 30.0 °F 26.5 °F 15.1 °F 54% 30.01 in 9.0 mi Variable 3.5 mph - N/A   Overcast
6:52 AM 28.9 °F 25.2 °F 16.0 °F 58% 30.01 in 10.0 mi NNW 3.5 mph - N/A   Overcast
7:52 AM 28.9 °F 23.9 °F 17.1 °F 61% 30.00 in 9.0 mi NNW 4.6 mph - N/A   Overcast
8:52 AM 30.0 °F - 18.0 °F 61% 30.01 in 10.0 mi Calm Calm - N/A   Overcast
9:52 AM 32.0 °F 26.4 °F 17.1 °F 54% 30.02 in 10.0 mi WNW 5.8 mph - N/A   Overcast
10:52 AM 35.1 °F 29.3 °F 17.1 °F 48% 30.02 in 10.0 mi SW 6.9 mph - N/A   Mostly Cloudy
11:52 AM 36.0 °F 27.5 °F 17.1 °F 46% 30.01 in 10.0 mi WNW 12.7 mph - N/A   Overcast
12:52 PM 36.0 °F 27.5 °F 21.0 °F 55% 30.02 in 8.0 mi West 12.7 mph - 0.00 in Snow Light Snow
1:20 PM 33.8 °F 24.8 °F 24.8 °F 70% 30.00 in 1.0 mi West 12.7 mph - 0.00 in Snow Light Snow
1:42 PM 35.6 °F 26.6 °F 24.8 °F 65% 30.00 in 5.0 mi West 13.8 mph 20.7 mph 0.00 in Snow Light Snow
1:52 PM 34.0 °F 27.2 °F 25.0 °F 70% 30.01 in 2.0 mi West 8.1 mph - 0.00 in Snow Light Snow
1:59 PM 33.8 °F 23.5 °F 26.6 °F 75% 30.00 in 2.0 mi West 16.1 mph 20.7 mph 0.00 in Snow Light Snow
2:04 PM 35.6 °F 26.6 °F 26.6 °F 70% 29.99 in 6.0 mi WNW 13.8 mph - 0.00 in Snow Light Snow
2:20 PM 33.8 °F 19.9 °F 24.8 °F 70% 30.00 in 0.5 mi WNW 31.1 mph 39.1 mph 0.00 in Snow Snow
2:21 PM 32.0 °F 17.9 °F 26.6 °F 80% 30.00 in 0.5 mi WNW 28.8 mph 39.1 mph 0.00 in Snow Snow
2:26 PM 28.4 °F 15.4 °F 26.6 °F 93% 30.01 in 0.2 mi NW 19.6 mph 39.1 mph 0.00 in Fog , Snow Heavy Snow
2:34 PM 30.2 °F 18.5 °F 26.6 °F 86% 30.01 in 0.5 mi WNW 17.3 mph 26.5 mph 0.03 in Fog , Snow Snow
2:40 PM 30.2 °F 17.4 °F 26.6 °F 86% 30.01 in 7.0 mi NW 20.7 mph - 0.03 in Snow Light Snow
2:52 PM 32.0 °F 20.5 °F 25.0 °F 75% 30.03 in 10.0 mi WNW 18.4 mph 24.2 mph 0.03 in   Overcast
3:22 PM 33.8 °F 21.6 °F 24.8 °F 70% 30.01 in 10.0 mi WNW 23.0 mph 29.9 mph 0.00 in   Overcast
3:28 PM 30.2 °F 16.8 °F 26.6 °F 86% 30.01 in 0.2 mi WNW 23.0 mph 32.2 mph 0.00 in Snow Light Snow
3:41 PM 33.8 °F 21.3 °F 21.2 °F 60% 30.01 in 10.0 mi NW 24.2 mph 31.1 mph 0.00 in   Mostly Cloudy
3:52 PM 35.1 °F 23.5 °F 23.0 °F 61% 30.03 in 10.0 mi WNW 21.9 mph 26.5 mph 0.00 in   Scattered Clouds
4:52 PM 32.0 °F 19.8 °F 19.0 °F 59% 30.06 in 10.0 mi NW 20.7 mph - 0.00 in   Mostly Cloudy
5:52 PM 33.1 °F 21.9 °F 14.0 °F 46% 30.07 in 10.0 mi NW 18.4 mph - 0.00 in   Mostly Cloudy
6:52 PM 32.0 °F 19.5 °F 12.0 °F 44% 30.10 in 10.0 mi WNW 21.9 mph 28.8 mph 0.00 in   Mostly Cloudy
7:52 PM 28.9 °F 18.2 °F 16.0 °F 58% 30.13 in 10.0 mi WNW 13.8 mph 24.2 mph N/A   Scattered Clouds
8:52 PM 28.0 °F 16.5 °F 15.1 °F 58% 30.15 in 10.0 mi WNW 15.0 mph - N/A   Scattered Clouds
9:52 PM 27.0 °F 16.7 °F 14.0 °F 58% 30.18 in 10.0 mi NW 11.5 mph - N/A   Partly Cloudy
10:52 PM 26.1 °F 14.5 °F 14.0 °F 60% 30.19 in 10.0 mi NW 13.8 mph 21.9 mph N/A   Partly Cloudy
11:52 PM 26.1 °F 15.0 °F 14.0 °F 60% 30.21 in 10.0 mi NW 12.7 mph - N/A   Partly Cloudy